Wind_Speed
2 5 9 9 10 9 6 4 8 12 15 14 20 22 24 26 28 27 24 25 19 16 17 16 13 6 7 10 12 12 12 12 10 10 9 9 9 9 9 9 9 10 11 12 12 12 11 9 9
2 8 14 11 11 11 7 4 8 11 14 15 19 21 30 31 31 27 21 19 19 15 16 14 10 7 5 7 8 9 8 7 7 9 10 10 11 11 11 11 11 12 13 14 14 13 13 11 10
2 11 14 13 10 7 4 6 7 10 12 16 19 22 29 34 32 28 17 13 15 14 12 12 8 6 4 4 4 4 4 5 6 8 10 11 12 12 13 13 13 14 14 14 14 14 15 13 12
3 9 13 13 6 4 3 1 3 7 11 16 19 21 28 36 35 34 25 18 19 13 9 8 6 3 2 2 2 3 5 6 7 7 9 11 11 12 14 14 14 15 15 15 15 16 16 14 14
5 10 15 12 9 4 4 2 3 5 11 15 17 21 26 34 36 33 23 21 17 10 8 7 4 1 1 3 4 5 6 6 6 8 9 10 11 13 14 15 16 16 17 16 15 16 15 15 15
6 6 12 10 8 7 8 4 5 6 11 12 16 21 23 29 29 28 19 20 18 12 9 8 5 2 1 4 6 6 7 7 7 8 9 11 13 14 16 16 17 18 17 16 15 15 15 17 17
4 6 9 10 10 10 8 5 6 4 9 11 13 17 20 20 28 27 26 19 19 16 13 10 8 6 3 0 4 5 6 8 8 10 10 13 15 16 16 17 17 17 16 15 15 15 16 17 18
3 5 6 9 12 12 10 11 10 4 4 6 11 9 17 18 24 29 32 24 16 17 15 10 8 7 6 5 3 3 4 6 9 9 10 12 13 14 15 16 16 16 16 15 15 16 17 18 19
1 5 7 7 11 9 11 13 11 8 4 7 13 10 14 16 22 25 29 20 14 14 13 9 6 7 7 5 5 5 5 5 6 7 7 8 9 10 12 13 13 14 15 16 17 20 21 22 21
7 3 2 3 6 11 12 13 14 12 7 8 11 12 18 18 20 22 21 17 11 10 12 9 4 5 7 8 6 6 6 7 7 5 3 3 3 6 8 11 13 15 16 17 19 20 21 22 24
8 7 2 1 7 10 13 15 16 15 15 10 10 12 12 18 18 17 17 13 13 14 17 16 9 2 1 2 2 1 2 5 7 11 12 12 13 13 14 16 18 19 20 22 24 25 25 26 28
6 5 7 7 8 9 13 20 22 24 17 15 8 5 12 15 20 21 16 12 15 16 12 11 13 9 7 6 8 8 10 10 12 13 14 15 16 18 21 22 21 22 23 23 25 26 27 28 29
6 9 11 12 16 8 6 7 7 5 3 4 4 6 12 14 16 20 13 10 7 9 11 10 12 14 10 15 16 16 17 18 19 20 21 23 24 25 26 26 27 28 28 28 28 28 30 31 33
8 11 10 10 6 4 7 8 9 9 9 7 4 9 15 16 20 21 16 15 16 14 21 11 18 15 18 17 24 31 26 27 25 24 25 27 30 31 32 33 32 33 34 32 28 27 27 29 33
9 6 10 5 2 3 4 7 7 8 10 11 14 14 15 22 23 19 13 13 14 14 18 20 25 16 23 17 24 32 38 36 30 31 32 34 36 36 38 41 41 41 45 43 38 34 35 38 41
7 5 6 4 4 6 7 7 6 9 12 13 14 17 23 29 24 18 14 10 11 12 7 27 36 12 14 26 28 33 39 33 44 34 32 33 32 37 45 31 39 44 54 52 48 45 45 45 48
7 8 6 8 9 8 9 10 12 13 8 8 16 15 26 19 20 16 11 22 19 17 16 19 18 20 23 25 31 33 37 39 43 44 46 45 45 46 40 41 37 35 32 26 44 52 47 54 57
5 3 7 13 13 10 11 10 12 13 16 15 20 21 21 22 25 22 23 25 25 25 25 21 25 29 32 35 37 40 42 44 45 46 46 47 47 46 42 39 32 31 26 30 24 29 33 53 67
9 10 10 12 14 16 13 14 17 19 18 21 24 23 21 18 16 19 22 28 30 32 32 28 27 33 40 43 42 44 48 51 50 48 48 48 48 45 43 39 35 33 25 25 22 26 33 29 38
15 16 15 14 15 16 18 20 23 21 20 21 22 23 21 16 15 22 30 35 39 41 40 44 44 43 48 49 49 49 47 47 45 44 43 42 43 43 39 38 35 34 30 28 26 27 33 27 28
9 9 12 15 16 18 21 22 20 19 16 21 24 29 28 22 21 24 30 37 42 43 43 46 41 45 49 48 48 49 49 44 43 43 42 43 42 41 39 37 37 34 30 30 30 27 29 27 17
6 8 9 10 8 9 12 15 13 17 19 20 25 28 24 23 27 32 41 43 42 42 49 48 43 42 45 46 46 47 49 47 42 40 39 39 40 40 40 38 37 36 34 30 30 29 27 28 25
5 8 9 9 10 12 13 15 17 18 22 25 25 24 25 29 34 40 40 39 41 41 41 42 41 41 44 45 47 48 47 45 48 45 43 44 45 45 43 41 39 37 37 36 33 32 30 30 32
6 8 9 10 11 13 13 15 16 20 21 23 23 26 29 33 35 35 36 40 36 37 36 40 42 44 45 45 44 45 47 46 45 46 47 46 46 46 46 45 42 39 36 35 36 35 34 33 32
7 6 9 11 13 16 16 17 17 17 15 17 21 24 27 30 33 35 33 34 33 34 38 42 43 45 45 45 45 46 48 51 53 53 53 51 45 40 39 41 43 43 40 37 36 37 37 37 37
6 3 6 9 13 15 17 20 19 20 20 22 24 28 29 31 29 29 30 33 35 38 41 44 47 49 48 48 49 49 50 51 52 52 52 46 42 40 38 35 33 36 41 40 39 39 39 39 41
8 7 10 14 16 21 22 23 23 25 26 27 27 27 28 27 30 35 39 43 44 47 49 49 48 47 49 50 51 51 52 50 45 39 39 39 42 43 44 38 33 31 30 36 40 40 43 43 43
10 9 12 15 19 23 24 24 27 27 29 30 32 32 32 35 38 42 47 51 55 57 59 59 59 58 58 58 58 54 47 41 39 41 43 43 43 40 36 34 27 27 27 30 32 34 42 46 47
13 12 14 16 21 25 28 29 29 31 33 34 35 35 38 41 45 49 53 56 57 58 59 58 59 60 61 61 55 47 45 44 46 45 46 42 37 36 37 35 33 29 26 25 27 34 35 42 46
14 15 16 20 23 26 27 28 31 33 35 35 35 38 41 45 49 52 56 57 57 57 57 58 60 60 56 52 49 46 46 45 43 44 38 38 34 32 33 29 26 25 24 23 26 30 35 39 39
Wind_Direction
40 129 139 137 138 150 139 93 54 33 22 36 38 23 14 11 9 360 351 348 354 14 13 356 355 335 263 252 248 239 229 231 230 242 255 259 259 258 261 265 272 281 286 284 278 268 256 238 221
55 111 130 137 158 148 151 103 25 27 28 27 44 20 15 5 8 359 348 349 359 23 27 14 4 360 327 278 246 239 228 232 241 245 248 253 257 257 258 264 273 278 279 278 272 264 252 237 230
63 134 146 159 156 133 126 90 39 31 26 27 36 20 11 6 1 1 351 354 3 357 32 24 9 12 349 281 233 193 199 212 231 241 247 248 251 258 262 266 267 270 271 270 264 254 244 237 231
82 133 154 171 173 178 142 122 4 29 15 28 28 25 9 7 7 1 354 358 4 356 20 35 26 22 14 39 187 208 213 221 234 253 256 260 264 262 265 265 266 268 268 267 258 248 241 234 234
110 147 172 187 191 203 206 204 315 15 23 27 21 17 10 2 3 360 353 357 4 12 28 45 47 21 243 228 221 239 248 242 246 262 274 273 267 266 266 270 274 274 271 269 259 249 240 232 233
139 156 180 198 206 228 240 288 328 2 28 22 21 12 12 360 355 357 356 351 2 12 30 54 65 75 251 241 240 250 263 272 273 270 266 268 273 274 279 281 280 276 273 268 256 246 239 231 234
174 170 188 208 208 219 259 291 288 357 24 23 14 27 7 349 351 350 355 346 335 358 8 30 50 55 62 294 267 267 275 285 280 277 280 280 280 281 280 279 275 274 267 258 249 239 233 234 241
180 176 193 206 226 240 262 293 288 281 22 16 1 24 356 346 350 350 355 355 355 347 351 18 34 55 54 58 53 359 328 313 307 301 297 293 291 285 280 277 273 267 262 253 244 236 231 235 243
324 187 205 218 229 262 289 300 289 290 338 352 353 351 348 343 346 359 359 345 352 12 9 12 52 65 64 58 60 58 45 28 6 348 338 331 320 309 299 288 281 271 259 245 234 227 228 236 240
342 258 309 266 248 263 291 297 304 293 302 306 334 339 335 340 345 351 341 329 340 3 21 12 25 81 80 68 58 69 79 73 57 40 10 340 307 288 277 272 265 259 251 243 237 236 238 240 240
340 307 333 13 281 273 275 280 286 275 293 314 316 330 343 358 340 313 309 28 27 5 1 356 355 333 99 102 79 91 156 178 186 201 205 207 212 217 224 230 233 241 246 247 246 245 244 242 243
296 300 284 302 298 291 290 280 276 281 287 296 288 331 3 344 334 317 338 327 352 347 343 326 328 326 317 295 264 257 252 244 239 238 235 236 238 238 240 241 241 240 243 247 252 255 254 254 255
244 259 269 285 302 331 340 345 357 31 18 328 354 328 324 329 318 307 322 306 297 304 285 281 293 288 280 271 271 261 258 256 251 252 250 248 248 249 251 255 256 254 247 245 247 251 256 260 261
261 256 268 286 299 348 18 23 17 22 19 351 330 325 314 315 319 321 298 292 296 285 284 292 298 299 279 290 289 287 261 257 260 260 262 262 259 260 263 265 265 268 267 260 252 249 253 260 263
286 260 248 247 339 360 333 16 13 349 332 320 327 340 328 322 319 300 287 292 308 310 299 290 277 276 272 265 293 298 301 304 272 258 259 258 256 257 260 259 256 258 263 261 260 256 255 258 258
283 285 251 250 287 276 305 341 334 312 301 321 329 333 325 324 321 311 303 315 316 326 295 310 269 248 305 295 290 291 292 293 297 302 292 294 293 300 291 287 306 306 257 250 248 253 256 256 258
296 295 275 264 270 281 279 321 346 4 355 339 336 333 340 339 342 321 320 315 312 306 303 324 303 312 293 302 295 293 292 293 296 299 301 302 298 303 296 301 303 302 311 284 271 249 257 258 257
308 270 260 257 282 268 291 331 334 343 339 332 334 328 334 347 340 326 317 311 305 300 305 320 320 314 307 301 298 295 292 288 289 292 294 296 298 297 295 290 288 286 278 287 294 273 290 258 248
274 276 280 258 278 291 289 316 322 326 326 323 331 323 344 314 321 326 327 317 303 295 298 298 298 305 308 303 299 300 302 301 299 298 298 299 300 301 297 292 289 281 283 272 265 274 280 280 287
272 276 284 273 283 288 314 312 313 315 322 327 332 321 320 312 299 315 315 306 303 299 304 301 299 301 305 303 299 296 298 300 303 304 302 300 298 297 298 299 296 292 289 281 280 269 268 283 281
292 292 291 289 293 291 297 304 312 316 324 325 321 316 316 316 313 308 305 300 299 299 299 302 302 294 302 301 304 307 308 306 305 306 304 301 300 301 301 301 300 297 293 287 282 275 270 277 257
306 313 322 304 305 315 327 324 322 318 315 315 310 306 305 303 304 306 303 297 292 303 304 304 305 303 299 302 304 306 306 307 306 304 303 301 300 298 296 295 292 291 288 283 277 276 271 265 263
333 316 309 306 320 314 320 307 312 307 306 304 305 303 305 303 303 298 293 291 299 302 301 305 307 307 308 308 305 304 306 309 310 309 305 302 301 300 297 294 291 287 285 283 279 277 271 265 263
319 313 312 317 324 319 318 308 309 305 301 300 301 302 299 294 290 287 288 298 305 303 308 310 310 309 308 307 306 305 304 305 306 307 306 304 302 299 295 291 288 283 277 273 269 266 267 267 261
319 321 319 320 319 314 319 318 316 311 307 300 291 287 284 287 291 295 297 300 300 307 308 307 310 312 313 312 309 308 309 311 310 309 309 309 309 303 297 292 288 282 277 269 262 258 254 254 257
307 327 316 300 312 315 317 322 323 318 309 304 298 296 298 298 296 296 301 306 313 311 312 317 319 317 317 314 312 312 311 310 309 308 308 309 310 308 303 298 293 281 273 266 260 253 249 247 246
307 323 321 322 320 320 320 320 321 315 312 311 309 309 306 306 318 321 322 320 320 322 323 322 319 317 316 316 314 311 310 309 310 306 303 303 306 307 309 304 295 283 279 274 266 255 247 241 242
306 317 316 319 315 312 317 319 318 321 322 321 323 322 321 325 326 326 325 326 327 327 326 326 325 322 319 317 316 319 319 316 312 311 310 310 308 309 309 309 291 291 291 279 269 263 251 245 241
307 315 321 317 313 314 316 322 326 330 329 328 329 327 327 328 328 327 326 325 325 325 325 322 318 317 317 318 323 323 320 317 316 316 315 315 313 308 308 304 295 291 288 281 270 260 257 252 248
300 309 311 308 312 311 316 328 330 330 329 329 327 325 324 324 324 324 323 324 324 321 319 316 316 319 321 322 323 321 320 321 319 318 319 316 314 311 309 307 302 287 288 282 270 264 252 247 249
Height
5889 5889 5891 5893 5898 5897 5896 5896 5895 5894 5893 5890 5888 5888 5886 5883 5881 5881 5877 5873 5871 5868 5866 5865 5863 5863 5865 5868 5868 5870 5870 5872 5872 5873 5872 5872 5872 5872 5872 5871 5871 5871 5870 5870 5869 5870 5871 5873 5874
5889 5890 5892 5894 5896 5896 5897 5897 5897 5895 5893 5891 5890 5888 5887 5884 5882 5880 5877 5875 5872 5868 5866 5864 5863 5862 5863 5864 5865 5867 5867 5868 5869 5870 5870 5869 5869 5869 5868 5868 5868 5868 5868 5867 5867 5867 5869 5870 5872
5889 5891 5893 5894 5895 5897 5897 5897 5896 5896 5894 5893 5891 5890 5888 5886 5883 5881 5878 5876 5873 5870 5866 5865 5863 5862 5862 5863 5864 5864 5865 5865 5866 5867 5867 5866 5867 5867 5867 5866 5866 5866 5865 5864 5864 5864 5865 5867 5869
5890 5892 5894 5894 5896 5897 5898 5898 5897 5897 5895 5894 5892 5890 5889 5887 5884 5881 5877 5875 5873 5870 5866 5864 5863 5863 5863 5863 5863 5863 5862 5862 5863 5863 5864 5864 5864 5864 5864 5864 5863 5862 5862 5861 5861 5861 5863 5864 5866
5891 5892 5893 5894 5896 5897 5897 5897 5897 5896 5896 5894 5893 5891 5890 5888 5885 5881 5877 5874 5872 5868 5865 5863 5862 5862 5862 5862 5862 5862 5860 5860 5859 5860 5862 5862 5861 5861 5860 5860 5860 5859 5858 5858 5858 5858 5859 5860 5861
5891 5893 5894 5895 5896 5897 5897 5898 5897 5896 5895 5895 5893 5891 5891 5888 5884 5881 5878 5875 5873 5869 5866 5862 5861 5861 5861 5861 5861 5860 5860 5859 5858 5858 5858 5858 5858 5857 5857 5856 5856 5855 5855 5854 5854 5854 5855 5856 5857
5891 5892 5894 5895 5896 5896 5896 5896 5896 5896 5895 5895 5893 5892 5892 5887 5885 5882 5880 5878 5875 5872 5868 5863 5860 5858 5857 5857 5859 5859 5859 5858 5857 5857 5856 5856 5855 5854 5853 5852 5852 5851 5850 5849 5850 5850 5851 5852 5853
5891 5892 5894 5895 5895 5896 5896 5896 5897 5896 5895 5894 5892 5892 5890 5887 5886 5883 5881 5878 5876 5873 5869 5864 5861 5859 5857 5855 5854 5854 5854 5855 5855 5854 5852 5852 5850 5850 5848 5847 5846 5845 5845 5844 5845 5845 5846 5847 5847
5892 5892 5893 5895 5895 5896 5896 5896 5896 5896 5896 5894 5892 5892 5891 5887 5887 5885 5881 5877 5875 5872 5869 5866 5863 5861 5859 5857 5855 5853 5851 5851 5851 5851 5850 5849 5849 5848 5847 5846 5844 5842 5841 5840 5839 5839 5839 5840 5841
5892 5892 5893 5894 5895 5894 5895 5895 5895 5895 5895 5893 5893 5893 5890 5889 5887 5885 5880 5876 5874 5871 5869 5867 5865 5862 5859 5858 5856 5853 5850 5849 5848 5847 5846 5845 5843 5842 5841 5839 5838 5837 5836 5835 5835 5836 5836 5836 5836
5892 5892 5892 5893 5893 5893 5893 5894 5894 5893 5893 5893 5893 5893 5891 5888 5886 5879 5878 5875 5873 5871 5868 5866 5864 5862 5859 5857 5855 5852 5848 5844 5840 5837 5835 5834 5832 5831 5830 5828 5828 5830 5831 5832 5831 5831 5832 5831 5831
5891 5892 5892 5892 5892 5893 5893 5892 5891 5891 5891 5892 5892 5891 5890 5887 5882 5878 5875 5873 5873 5870 5867 5865 5863 5860 5858 5857 5851 5849 5847 5844 5842 5839 5837 5835 5833 5831 5829 5826 5826 5825 5825 5827 5828 5829 5830 5829 5829
5890 5892 5891 5891 5891 5892 5892 5891 5890 5889 5889 5890 5891 5889 5887 5885 5880 5873 5873 5871 5867 5865 5862 5859 5857 5857 5854 5848 5848 5846 5844 5841 5837 5836 5834 5832 5830 5828 5827 5826 5826 5823 5819 5818 5820 5822 5824 5824 5823
5890 5889 5891 5891 5892 5892 5892 5891 5890 5889 5888 5888 5887 5886 5884 5881 5879 5874 5868 5866 5864 5861 5859 5856 5855 5853 5850 5848 5846 5845 5841 5836 5836 5833 5831 5829 5828 5826 5825 5824 5824 5823 5822 5820 5814 5813 5815 5817 5817
5888 5890 5890 5892 5892 5892 5891 5891 5889 5889 5887 5886 5885 5884 5881 5878 5874 5868 5866 5863 5862 5860 5856 5852 5848 5845 5840 5835 5838 5837 5834 5833 5829 5823 5821 5819 5817 5817 5818 5816 5813 5813 5813 5812 5813 5808 5805 5805 5805
5888 5890 5891 5891 5891 5891 5891 5890 5889 5887 5885 5884 5883 5880 5875 5871 5867 5864 5862 5860 5857 5854 5851 5846 5839 5834 5831 5836 5833 5832 5831 5813 5811 5813 5814 5808 5810 5811 5808 5805 5800 5804 5797 5796 5795 5796 5794 5794 5794
5891 5891 5892 5892 5891 5890 5891 5888 5886 5885 5884 5883 5880 5876 5871 5868 5865 5861 5859 5857 5853 5849 5847 5842 5838 5838 5837 5832 5828 5824 5822 5818 5812 5809 5806 5801 5803 5803 5799 5795 5794 5792 5785 5786 5781 5783 5784 5780 5779
5891 5891 5891 5891 5891 5889 5888 5887 5883 5883 5881 5879 5876 5870 5866 5863 5861 5860 5857 5854 5850 5846 5841 5833 5829 5827 5826 5824 5821 5816 5813 5811 5807 5802 5798 5795 5793 5790 5789 5789 5786 5784 5779 5776 5768 5772 5768 5760 5760
5889 5890 5890 5890 5889 5887 5886 5885 5883 5881 5879 5875 5872 5867 5863 5861 5858 5858 5855 5851 5845 5841 5838 5833 5828 5823 5818 5813 5810 5808 5802 5798 5794 5791 5787 5784 5780 5777 5774 5774 5771 5773 5766 5764 5760 5757 5759 5753 5752
5888 5888 5888 5888 5886 5885 5883 5882 5880 5878 5876 5873 5870 5866 5862 5859 5857 5854 5849 5842 5835 5830 5829 5825 5822 5815 5810 5806 5802 5798 5795 5789 5783 5777 5774 5772 5768 5766 5763 5760 5758 5756 5753 5752 5750 5748 5747 5740 5736
5886 5887 5886 5886 5884 5883 5881 5879 5877 5876 5874 5872 5868 5863 5859 5857 5854 5850 5845 5839 5833 5828 5825 5819 5814 5809 5803 5797 5791 5785 5782 5780 5775 5769 5766 5761 5758 5753 5750 5747 5743 5743 5743 5742 5740 5739 5738 5731 5731
5885 5884 5884 5883 5882 5881 5880 5879 5877 5873 5873 5871 5868 5862 5858 5855 5851 5845 5840 5834 5828 5823 5815 5808 5804 5799 5793 5787 5783 5779 5774 5770 5768 5764 5759 5755 5749 5745 5740 5738 5736 5733 5732 5732 5730 5728 5727 5724 5724
5885 5883 5882 5881 5880 5879 5878 5877 5875 5874 5871 5869 5865 5859 5856 5852 5845 5840 5835 5828 5824 5819 5811 5804 5797 5790 5785 5781 5775 5769 5764 5757 5748 5744 5743 5741 5736 5731 5729 5725 5723 5721 5719 5717 5716 5715 5716 5716 5716
5883 5882 5880 5878 5877 5877 5875 5875 5873 5872 5869 5865 5860 5856 5852 5847 5842 5836 5831 5825 5820 5812 5804 5796 5791 5785 5779 5773 5766 5757 5749 5744 5740 5733 5727 5722 5720 5717 5714 5712 5709 5707 5705 5705 5704 5703 5703 5703 5703
5881 5880 5879 5878 5876 5875 5873 5872 5870 5867 5865 5861 5857 5853 5848 5843 5837 5831 5825 5820 5813 5805 5798 5791 5784 5776 5769 5761 5753 5745 5738 5730 5723 5718 5713 5706 5701 5698 5697 5694 5691 5689 5689 5688 5688 5689 5689 5690 5691
5881 5880 5879 5877 5876 5874 5871 5869 5866 5861 5857 5853 5849 5845 5840 5836 5830 5824 5819 5812 5805 5798 5790 5781 5772 5763 5755 5748 5740 5733 5726 5720 5713 5706 5698 5693 5688 5684 5680 5677 5676 5674 5671 5671 5672 5671 5673 5674 5676
5878 5878 5877 5874 5872 5870 5868 5864 5861 5855 5851 5847 5842 5838 5833 5828 5820 5813 5806 5798 5792 5784 5776 5769 5761 5752 5743 5734 5727 5719 5711 5704 5699 5694 5689 5684 5678 5672 5666 5662 5659 5658 5657 5655 5654 5656 5657 5657 5659
5877 5876 5874 5871 5869 5866 5863 5859 5855 5850 5845 5839 5834 5829 5823 5815 5809 5801 5793 5783 5775 5765 5756 5747 5738 5731 5724 5716 5710 5703 5696 5690 5685 5680 5674 5670 5666 5661 5656 5651 5647 5645 5642 5640 5639 5639 5642 5643 5644
5874 5872 5870 5868 5866 5862 5857 5854 5848 5843 5837 5832 5826 5820 5813 5805 5798 5790 5782 5774 5766 5758 5748 5739 5730 5720 5712 5703 5697 5692 5685 5679 5673 5667 5661 5656 5653 5649 5644 5640 5636 5634 5633 5630 5628 5628 5628 5630 5631
5871 5869 5867 5864 5862 5858 5854 5849 5842 5837 5831 5826 5820 5813 5806 5799 5792 5784 5775 5766 5758 5748 5738 5728 5719 5710 5702 5695 5690 5683 5677 5670 5664 5657 5652 5647 5643 5639 5634 5629 5625 5624 5622 5620 5618 5616 5617 5617 5619